Location: *
(55.5817°S, 142.4781°W)
Time: 06:37:39
(UTC+00:00)

Cosmos 1703 Rocket - Pass Details

Date: 29 April 2025
Orbit: 599 x 627 km, 82.5° (Epoch: 23 May)

Event Time Altitude Azimuth Distance (km) Brightness Sun altitude
Rises 13:56:24 0° 193° (SSW) 2,909 7.0 -24.8°
Enters shadow 13:58:30 - 192° (SSW) 2,053 6.2 -24.5°
Exits shadow 14:02:27 66° 194° (SSW) 684 3.6 -24.0°
Maximum altitude 14:03:05 89° 282° (WNW) 630 3.4 -23.9°
Drops below altitude 10° 14:07:30 10° 10° (N) 1,990 6.2 -23.3°
Sets 14:09:43 0° 9° (N) 2,893 7.0 -23.0°
